Location: Lincoln
(40.8000°N, 96.6670°W)
Time: 19:50:31
(UTC-06:00)

N. Korean satellite - Visible Passes

Search period start: 31 January 2023 00:00
Search period end: 10 February 2023 00:00
Orbit: 407 x 443 km, 97.3° (Epoch: 31 January)

Date Brightness Start Highest point End Pass type
(mag) Time Alt. Az. Time Alt. Az. Time Alt. Az.
31 Jan 6.7 06:14:33 10° N 06:17:34 39° WNW 06:20:38 10° SW visible
01 Feb 7.4 05:32:03 10° NNE 05:35:09 43° E 05:38:16 10° S visible
02 Feb 9.8 04:51:13 10° ENE 04:52:25 12° E 04:53:38 10° ESE visible
02 Feb 7.0 06:21:52 10° N 06:24:47 31° WNW 06:27:42 10° SW visible
03 Feb 6.9 05:39:04 10° NNE 05:42:16 56° E 05:45:28 10° S visible
04 Feb 9.5 04:57:35 10° ENE 04:59:27 14° E 05:01:18 10° SE visible
04 Feb 7.3 06:28:58 10° NNW 06:31:43 25° WNW 06:34:28 10° SW visible
05 Feb 6.4 05:45:51 10° NNE 05:49:05 73° E 05:52:22 10° S visible
06 Feb 9.2 05:03:55 10° NE 05:06:11 17° E 05:08:28 10° SE visible
06 Feb 7.6 06:35:50 10° NNW 06:38:22 21° WNW 06:40:55 10° WSW visible
07 Feb 6.2 05:52:24 10° NNE 05:55:40 89° WNW 05:58:56 10° SSW visible
08 Feb 8.9 05:10:05 10° NE 05:12:39 21° E 05:15:14 10° SSE visible
08 Feb 7.8 06:42:28 10° NNW 06:44:45 18° WNW 06:47:03 10° WSW visible
09 Feb 6.1 05:58:42 10° N 06:01:58 72° WNW 06:05:14 10° SSW visible
